Date,TemperatureHighF,TemperatureAvgF,TemperatureLowF,DewpointHighF,DewpointAvgF,DewpointLowF,HumidityHigh,HumidityAvg,HumidityLow,PressureMaxIn,PressureMinIn,WindSpeedMaxMPH,WindSpeedAvgMPH,GustSpeedMaxMPH,PrecipitationSumIn
2012-6-2,75.6,68.2,58.7,57.1,50.1,44.2,67,53,42,29.86,29.79,0,-45,0,0.76
2012-6-3,79.0,65.0,58.7,56.3,52.4,44.1,74,65,30,29.92,29.75,1,0,1,0.00
2012-6-4,70.8,67.3,66.8,53.9,53.5,52.3,63,61,52,29.67,29.63,0,0,0,0.00
2012-6-5,70.3,63.6,57.6,58.0,54.9,52.5,83,74,64,29.91,29.82,0,0,1,0.01
2012-6-6,70.8,60.8,56.5,58.0,54.3,51.8,88,80,58,29.99,29.88,0,0,0,0.04
2012-6-7,79.9,66.9,54.4,61.4,55.8,50.9,90,70,43,30.02,29.94,0,0,7,0.00
2012-6-8,84.7,72.6,57.6,62.9,56.6,50.8,89,61,32,30.02,29.93,0,0,6,0.00
2012-6-9,88.4,78.0,64.7,65.8,60.3,54.6,86,57,32,30.05,29.96,0,0,6,0.00
2012-6-10,88.8,79.8,65.8,66.6,60.4,57.1,75,53,36,30.12,30.02,2,0,2,0.00
2012-6-11,80.5,73.0,67.9,72.7,67.4,59.3,90,83,73,30.12,30.01,5,0,5,0.58
2012-6-12,80.9,74.9,72.3,75.5,71.8,68.9,93,90,84,30.01,29.81,2,0,2,0.25
2012-6-13,83.8,75.5,60.5,71.7,65.5,49.2,93,72,54,29.99,29.84,7,0,10,0.04
2012-6-14,77.7,67.3,55.6,67.3,59.5,49.4,85,76,68,30.13,29.99,11,1,11,0.00
2012-6-15,81.1,69.6,58.9,64.5,59.2,54.2,89,70,52,30.21,30.12,10,1,10,0.00
2012-6-16,81.2,68.1,54.5,60.9,54.9,49.9,87,65,40,30.24,30.12,11,1,11,0.00
2012-6-17,81.8,67.7,54.4,61.8,55.6,50.1,88,67,39,30.17,30.00,9,0,9,0.00
2012-6-18,84.9,71.4,62.3,69.8,63.0,55.9,87,76,57,30.08,30.00,8,0,8,0.00
2012-6-19,91.4,78.4,67.1,71.9,67.3,63.1,88,70,45,30.12,30.05,10,0,10,0.00
2012-6-20,93.4,80.4,70.8,76.1,70.6,66.7,90,73,50,30.11,30.01,8,0,8,0.00
2012-6-21,94.9,79.2,72.3,77.4,70.9,67.7,89,77,44,30.01,29.84,6,0,6,0.01
2012-6-22,94.9,80.3,72.3,76.3,70.7,66.7,88,74,45,29.88,29.73,17,0,17,0.04
2012-6-23,90.1,78.9,71.5,74.2,69.7,65.4,91,75,47,29.97,29.83,10,0,10,0.01
2012-6-24,92.1,80.7,68.9,72.2,66.5,60.3,89,65,37,29.98,29.86,9,0,9,0.00
2012-6-25,92.9,81.0,71.8,74.1,68.9,64.2,88,69,41,29.88,29.63,11,0,11,0.00
2012-6-26,82.0,72.0,60.9,65.4,51.5,46.3,73,51,30,29.88,29.76,13,0,13,0.00
2012-6-27,88.4,71.9,54.5,61.7,51.9,47.7,85,54,25,29.94,29.84,10,0,10,0.00
2012-6-28,97.1,78.1,61.3,65.4,57.7,52.9,86,55,24,29.96,29.82,11,0,11,0.00
2012-6-29,105.1,85.5,68.4,76.3,66.2,60.9,79,56,29,29.84,29.68,18,1,20,0.00
2012-6-30,104.4,91.9,75.8,70.9,66.7,60.8,77,46,27,29.84,29.74,10,0,14,0.00
2012-7-1,103.1,82.6,72.1,76.7,69.6,54.5,84,67,29,29.97,29.78,26,0,26,0.15
2012-7-2,93.6,80.8,72.0,70.6,66.4,62.9,85,63,39,29.97,29.88,13,0,13,0.00
2012-7-3,99.7,87.8,72.5,73.2,67.5,61.3,79,54,29,29.96,29.84,8,0,8,0.00
2012-7-4,99.7,85.1,73.2,73.5,68.8,65.2,81,60,35,29.94,29.84,8,0,8,0.02
2012-7-5,101.2,80.0,73.0,76.8,71.3,59.4,88,77,34,29.89,29.79,22,0,22,0.80
2012-7-6,98.0,80.2,72.0,77.8,72.5,68.8,90,79,45,29.92,29.83,10,0,10,0.17
2012-7-7,98.7,84.6,74.2,80.5,74.1,69.8,91,73,42,29.95,29.84,12,0,12,0.01
2012-7-8,102.3,86.9,75.8,78.5,72.5,66.1,86,65,33,29.90,29.75,11,0,11,0.00
2012-7-9,94.7,82.9,74.4,76.0,72.0,68.5,88,71,50,29.94,29.79,9,0,9,0.57
2012-7-10,82.4,77.3,74.9,76.3,73.5,71.2,91,88,80,30.00,29.89,6,0,6,0.75
2012-7-11,81.8,73.5,68.8,74.5,70.0,65.2,92,89,76,30.10,29.98,5,0,19,0.95
2012-7-12,84.0,75.4,68.9,71.8,69.3,66.5,93,82,62,30.14,30.08,7,0,7,0.01
2012-7-13,87.2,77.0,71.6,75.2,71.0,68.0,90,82,66,30.17,30.09,6,0,6,0.05
2012-7-14,91.6,80.3,74.0,77.5,73.6,69.9,90,80,57,30.19,30.07,6,0,6,0.00
2012-7-15,91.8,82.0,74.9,77.3,73.6,69.4,90,76,55,30.16,30.01,8,0,8,0.00
2012-7-16,93.6,82.1,74.7,77.1,73.0,70.3,89,75,48,30.05,29.86,8,0,8,0.00
2012-7-17,95.6,82.6,74.0,78.7,74.0,70.5,90,76,50,29.92,29.83,5,0,5,0.00
2012-7-18,94.5,82.4,75.3,79.3,74.0,71.2,89,76,56,29.93,29.84,7,0,7,0.00
2012-7-19,95.1,84.5,76.5,75.9,73.7,70.6,89,72,49,29.96,29.86,8,0,8,0.45
2012-7-20,91.6,80.2,75.8,77.9,74.3,70.6,91,83,59,29.91,29.82,13,0,16,0.34
2012-7-21,90.1,80.0,76.0,79.5,75.0,72.0,92,85,68,30.06,29.89,8,0,8,0.09
2012-7-22,86.3,78.4,75.1,77.5,74.1,71.6,91,87,72,30.16,30.02,6,0,6,0.02
2012-7-23,95.1,81.7,74.2,79.5,74.1,71.1,91,79,49,30.12,29.97,11,0,11,0.04
2012-7-24,94.0,81.7,74.6,80.8,73.2,66.9,92,76,52,29.98,29.76,22,1,22,0.01
2012-7-25,87.4,78.7,70.8,73.4,69.2,65.5,86,73,56,29.92,29.82,6,0,6,0.00
2012-7-26,96.3,84.8,75.6,78.8,73.9,70.1,88,71,47,29.87,29.72,9,0,9,0.00
2012-7-27,97.3,84.0,75.8,78.8,73.6,67.9,88,73,46,29.89,29.77,14,0,16,0.13
2012-7-28,92.3,81.6,72.5,78.9,73.9,67.8,91,79,53,29.97,29.83,8,0,8,0.12
2012-7-29,92.1,79.5,70.1,73.7,69.9,66.7,90,74,46,29.97,29.89,7,0,7,0.00
2012-7-30,89.3,78.4,72.3,76.6,71.5,67.2,90,80,58,29.99,29.91,8,0,8,0.00
2012-7-31,89.0,78.6,71.6,74.1,70.7,67.2,90,77,56,29.98,29.84,6,0,6,0.00
2012-8-1,90.3,78.7,71.6,75.8,70.7,67.4,89,77,56,29.89,29.79,7,0,7,0.36
2012-8-2,91.4,82.1,73.0,78.9,72.6,67.0,92,74,52,29.93,29.83,8,0,8,0.00
2012-8-3,91.4,79.8,70.4,75.1,70.5,66.4,89,74,52,30.04,29.90,7,0,7,0.00
2012-8-4,92.1,80.8,73.3,76.3,71.7,68.1,89,75,49,30.16,30.03,8,0,8,0.00
2012-8-5,88.0,78.9,76.1,78.3,72.7,70.0,86,81,71,30.20,30.06,7,0,7,0.02
2012-8-6,92.1,80.8,75.1,76.7,73.2,70.7,90,79,51,30.09,29.96,7,0,7,0.39
2012-8-7,84.5,77.8,75.1,77.6,73.8,72.0,91,88,78,30.03,29.93,6,0,6,0.08
2012-8-8,88.6,78.0,70.4,78.3,73.1,66.8,91,85,67,29.96,29.88,7,0,7,0.90
2012-8-9,87.6,79.6,68.4,77.8,73.5,65.6,91,82,70,29.95,29.82,3,0,3,0.00
2012-8-10,82.4,78.0,73.7,74.8,72.8,70.3,90,84,76,29.83,29.77,11,0,11,0.01
2012-8-11,85.7,77.1,73.7,77.8,72.9,67.9,91,87,74,29.91,29.81,16,0,16,0.30
2012-8-12,87.6,79.0,70.9,74.6,71.1,66.2,92,77,55,29.97,29.88,5,0,5,0.00
2012-8-13,90.3,77.6,66.9,73.0,67.0,63.5,91,73,45,30.01,29.89,6,0,6,0.00
2012-8-14,89.9,78.5,68.3,73.0,68.8,64.6,90,74,48,29.91,29.80,2,0,8,0.00
2012-8-15,87.2,78.4,72.3,75.4,70.8,68.4,89,78,60,29.88,29.81,2,0,11,0.00
2012-8-16,90.0,77.4,69.8,70.6,66.9,62.0,90,72,41,29.98,29.88,1,0,7,0.00
2012-8-17,90.7,78.3,68.8,73.4,68.2,64.7,90,73,47,29.96,29.78,9,0,9,0.00
2012-8-18,86.5,76.9,70.3,71.4,68.1,64.4,89,75,54,29.87,29.80,7,0,7,0.00
2012-8-19,73.9,72.0,70.4,69.9,68.2,65.7,91,88,79,29.90,29.80,6,0,6,1.65
2012-8-20,81.4,74.7,69.1,71.7,69.3,66.1,92,83,69,29.94,29.83,6,0,6,0.04
2012-8-21,81.8,75.1,70.3,72.7,69.9,67.5,91,84,69,30.03,29.93,2,0,3,0.00
2012-8-22,79.8,74.0,70.4,72.4,69.8,67.0,91,87,75,30.09,30.01,5,0,5,0.04
2012-8-23,84.3,75.6,69.1,71.5,67.9,65.5,92,78,55,30.12,30.04,8,0,8,0.00
2012-8-24,77.9,72.0,67.9,69.5,66.0,62.6,90,82,65,30.12,30.06,7,0,7,0.00
2012-8-25,71.8,68.1,65.0,66.4,63.8,61.7,90,86,79,30.08,30.02,12,1,12,0.68
2012-8-26,84.1,73.1,66.4,72.2,67.6,63.7,92,83,65,30.16,30.07,6,0,6,0.00
2012-8-27,89.0,78.2,70.4,76.3,71.6,66.8,90,81,63,30.12,29.97,7,0,7,0.00
2012-8-28,88.4,79.5,74.4,77.4,73.6,70.5,91,82,67,29.99,29.85,7,0,7,0.14
2012-8-29,86.5,77.2,71.1,73.9,70.9,66.4,91,82,61,29.97,29.87,3,0,3,0.01
2012-8-30,88.0,78.6,68.4,76.0,70.7,65.0,90,77,64,30.08,29.96,7,0,7,0.00
2012-8-31,90.7,78.5,71.6,79.4,73.2,68.0,91,84,67,30.17,30.02,2,0,7,0.01
2012-9-1,90.3,80.6,75.1,78.6,74.1,71.3,91,81,57,30.08,29.98,10,0,10,0.00
2012-9-2,90.1,80.6,72.7,79.7,74.1,67.8,90,81,65,30.00,29.89,9,0,9,0.45
2012-9-3,87.2,79.0,73.0,79.1,74.3,69.2,92,86,73,30.01,29.90,10,0,10,0.44
2012-9-4,88.4,80.0,74.4,76.8,73.8,71.2,92,82,65,29.98,29.86,8,0,8,0.01
2012-9-5,85.7,78.2,73.3,75.5,72.6,69.7,91,83,68,29.89,29.79,13,0,13,0.00
2012-9-6,88.2,78.9,74.2,77.5,73.3,69.0,91,83,66,29.87,29.83,13,0,13,0.00
2012-9-7,84.1,77.4,73.3,74.3,71.1,68.7,88,81,72,29.86,29.80,0,0,0,0.00
2012-9-8,88.0,76.5,70.4,78.1,71.2,65.7,91,84,69,29.83,29.62,13,0,13,0.41
2012-9-9,79.2,70.3,62.0,68.2,62.6,56.8,92,78,50,29.94,29.77,10,0,10,0.04
2012-9-10,78.1,66.0,56.3,61.4,56.2,53.1,91,73,43,30.13,29.94,10,0,10,0.00
2012-9-11,78.3,64.5,55.1,60.9,54.9,51.9,90,74,46,30.29,30.13,7,0,7,0.01
2012-9-12,78.8,65.9,58.4,57.5,54.9,52.5,85,69,47,30.30,30.24,3,0,3,0.00
2012-9-13,80.1,69.1,55.6,64.3,59.5,52.1,88,73,48,30.34,30.21,6,0,6,0.00
2012-9-14,82.0,71.5,64.7,69.1,64.6,61.1,91,80,60,30.23,30.11,6,0,6,0.00
2012-9-15,79.6,69.8,62.0,67.1,62.5,56.5,91,78,61,30.16,30.08,11,0,11,0.00
2012-9-16,62.9,61.2,59.8,59.7,57.2,55.3,90,87,82,30.17,30.09,3,0,3,0.42
2012-9-17,77.9,69.8,62.3,70.6,65.4,59.3,91,86,75,30.09,29.92,5,0,5,0.13
2012-9-18,77.9,73.3,69.4,74.9,70.7,66.6,93,92,89,29.92,29.67,21,0,21,2.01
2012-9-19,70.9,66.2,57.6,68.7,60.6,53.7,93,83,64,30.12,29.77,12,0,12,0.51
2012-9-20,76.5,64.1,54.5,62.5,57.2,51.8,92,79,56,30.15,30.02,7,0,7,0.00
2012-9-21,81.6,68.0,58.1,67.7,60.7,55.1,90,78,58,30.06,29.96,7,0,7,0.01
2012-9-22,84.0,71.6,62.4,71.0,64.8,58.8,92,80,58,29.97,29.83,10,0,13,0.00
2012-9-23,75.1,65.3,53.3,66.1,53.8,47.8,86,68,41,30.10,29.92,12,0,12,0.02
2012-9-24,71.5,58.3,48.8,55.9,49.3,45.5,90,74,44,30.21,30.10,7,0,7,0.00
2012-9-25,76.5,61.3,48.6,60.7,53.3,45.1,90,76,49,30.23,30.11,6,0,6,0.01
2012-9-26,81.4,66.7,55.1,66.1,58.8,51.6,90,77,56,30.20,30.11,7,0,7,0.00
2012-9-27,84.5,74.1,59.6,68.3,63.2,56.6,90,70,50,30.17,30.03,5,0,5,0.00
2012-9-28,82.8,66.9,60.9,70.5,61.7,57.6,90,84,65,30.05,29.94,1,0,1,0.03
2012-9-29,69.3,65.7,59.9,65.8,62.9,57.8,93,91,87,29.98,29.88,0,0,0,0.89
2012-9-30,65.3,58.9,56.7,60.6,56.7,54.7,93,93,84,29.91,29.89,0,0,0,0.00
2012-10-1,65.8,65.0,64.2,63.1,62.3,61.5,91,91,91,29.86,29.84,5,0,5,0.14
2012-10-2,85.9,77.7,65.8,78.7,73.6,63.1,93,87,76,29.92,29.78,6,0,6,0.00
2012-10-3,83.2,78.0,74.0,76.8,74.0,71.5,92,88,76,30.10,29.92,6,0,6,0.01
2012-10-4,76.7,69.9,66.4,69.1,65.3,63.0,89,85,76,30.15,30.09,0,0,0,0.00
2012-10-5,80.7,68.0,58.7,66.4,61.3,56.3,93,80,54,30.15,29.98,0,0,0,0.00
2012-10-6,82.8,69.3,58.7,67.9,61.1,55.2,92,76,53,29.98,29.84,6,0,6,0.00
2012-10-7,65.2,54.7,50.8,56.1,51.0,47.4,91,88,70,30.13,29.93,8,0,8,0.36
2012-10-8,53.1,50.7,48.2,50.6,47.8,44.3,92,90,83,30.21,30.10,10,0,10,0.18
2012-10-9,57.5,52.9,49.4,55.0,50.7,47.4,93,92,90,30.15,30.06,8,0,8,0.01
2012-10-10,70.9,63.7,55.7,57.3,55.7,51.9,93,76,61,30.05,29.93,3,1,10,0.00
2012-10-11,66.9,54.9,45.4,49.6,46.1,42.6,90,74,50,30.29,30.15,1,0,6,0.00
2012-10-12,72.8,58.2,46.1,56.1,48.3,43.3,91,72,43,30.34,30.14,10,0,10,0.01
2012-10-13,65.6,52.5,41.5,48.0,42.8,35.9,85,71,50,30.47,30.32,7,0,10,0.00
2012-10-14,73.9,58.7,44.8,62.2,52.5,41.5,90,81,61,30.33,30.04,7,0,7,0.00
2012-10-15,70.1,62.6,53.8,67.3,59.7,51.2,91,90,89,29.92,29.67,2,0,2,0.00
2012-10-16,68.8,57.3,48.5,53.1,48.3,43.6,91,73,50,29.95,29.82,6,0,6,0.00
2012-10-17,54.8,50.9,49.1,48.5,46.5,45.1,90,85,78,29.96,29.90,0,0,0,0.00
2012-10-18,76.0,62.0,49.6,65.7,55.5,46.2,91,80,66,29.91,29.75,5,0,5,0.00
2012-10-19,76.0,63.5,48.8,66.8,50.9,42.1,83,65,45,29.75,29.62,10,0,10,0.00
2012-10-20,70.4,55.8,46.2,52.3,46.0,42.2,88,72,44,29.93,29.73,7,0,7,0.00
2012-10-21,66.9,52.9,42.2,49.3,42.9,38.4,88,71,43,30.12,29.93,7,0,7,0.00
2012-10-22,61.0,53.3,49.9,49.1,46.6,45.3,85,78,61,30.17,30.13,0,0,0,0.00
2012-10-23,78.5,59.4,48.3,61.4,51.3,44.8,91,77,46,30.17,30.07,6,0,6,0.01
2012-10-24,80.7,65.6,51.9,62.5,55.5,48.4,89,72,48,30.16,30.04,6,0,6,0.00
2012-10-25,77.7,65.4,59.3,60.9,57.2,55.1,87,76,54,30.09,30.06,1,0,1,0.00
2012-10-26,70.9,65.3,60.5,64.6,60.8,56.5,92,86,77,30.11,29.91,9,0,9,0.06
2012-10-27,66.0,64.1,61.8,63.0,59.6,55.7,91,86,77,29.91,29.68,17,1,17,0.00
2012-10-28,61.5,58.2,54.5,51.6,49.6,47.0,88,74,61,29.60,29.53,17,3,17,0.03
2012-10-29,55.0,46.4,41.8,51.6,43.2,38.6,91,89,83,29.55,29.25,21,3,21,0.41
2012-10-30,49.9,45.2,41.8,38.9,35.5,33.5,89,69,55,29.56,29.23,21,2,21,0.01
2012-10-31,54.1,45.9,38.9,39.8,36.1,33.2,82,69,54,29.73,29.56,12,0,12,0.00
2012-11-1,56.5,46.1,37.9,40.5,36.5,33.0,87,70,50,29.82,29.72,17,1,17,0.00
2012-11-2,58.0,42.7,35.6,43.6,36.5,31.8,89,79,49,29.95,29.80,11,1,11,0.00
2012-11-3,57.6,42.8,32.2,38.4,33.3,28.2,88,71,43,30.08,29.94,13,1,13,0.00
2012-11-4,52.8,46.2,40.6,41.6,38.6,35.2,86,75,64,30.08,29.96,8,0,8,0.05
2012-11-5,53.9,45.1,36.2,40.8,34.7,30.6,87,68,49,30.10,30.00,9,0,9,0.00
2012-11-6,45.4,41.3,33.8,35.1,32.4,30.3,87,71,61,30.14,29.91,10,1,10,0.00
2012-11-7,51.9,41.8,32.8,37.8,33.0,28.2,84,71,55,29.93,29.81,11,1,11,0.00
2012-11-8,59.0,43.2,33.7,38.4,29.8,21.5,89,64,25,30.09,29.92,13,1,13,0.00
2012-11-9,62.6,43.5,29.8,37.5,31.1,24.1,81,64,35,30.25,30.08,8,0,8,0.00
2012-11-10,72.8,48.8,36.3,53.7,36.9,32.1,89,68,27,30.36,30.23,8,0,8,0.00
2012-11-11,73.7,54.3,39.5,52.4,44.5,35.2,88,72,43,30.47,30.35,9,0,9,0.00
2012-11-12,74.7,63.0,52.2,62.3,56.8,48.7,91,81,62,30.40,30.14,9,0,9,0.01
2012-11-13,64.7,53.6,47.0,61.1,50.4,44.3,91,89,86,30.32,30.11,17,1,17,0.20
2012-11-14,50.2,40.3,31.9,37.4,33.8,29.0,91,79,58,30.49,30.37,5,1,16,0.00
2012-11-18,52.9,52.0,50.5,43.9,43.5,42.8,75,72,71,30.37,30.33,13,2,13,0.00
2012-11-19,58.1,51.7,48.3,48.0,43.8,41.5,79,74,67,30.34,30.17,14,2,14,0.00
2012-11-20,58.7,50.8,41.1,47.5,43.4,37.0,86,76,64,30.14,30.02,6,0,6,0.00
2012-11-21,58.0,44.1,35.6,46.7,36.8,31.3,90,77,48,30.16,30.08,11,1,11,0.00
2012-11-22,59.8,41.9,31.3,38.2,29.8,25.1,86,65,33,30.24,30.14,11,1,11,0.00
2012-11-23,64.7,44.1,29.0,40.1,32.8,23.8,87,67,37,30.15,29.85,14,0,14,0.01
2012-11-24,49.9,41.5,26.9,39.0,24.6,16.2,66,52,37,30.11,29.85,15,2,15,0.00
2012-11-25,49.4,33.3,21.6,25.5,20.6,15.7,80,62,34,30.17,30.01,9,0,9,0.00
2012-11-26,64.8,42.6,28.4,36.2,27.7,21.5,83,60,26,30.18,30.06,8,0,8,0.00
2012-11-27,54.8,46.1,38.8,41.4,36.5,28.9,87,70,50,30.23,30.09,9,0,9,0.05
2012-11-28,50.5,38.0,29.5,38.7,31.3,24.9,90,78,54,30.38,30.23,13,0,13,0.00
2012-11-29,52.8,35.7,26.3,33.8,26.8,22.4,89,72,43,30.47,30.36,8,0,8,0.00
2012-11-30,60.4,41.2,29.0,39.6,31.6,24.4,88,71,42,30.39,30.27,8,0,8,0.01
2012-12-1,63.7,45.0,34.0,48.2,37.5,30.0,89,76,51,30.39,30.30,7,0,7,0.00
2012-12-2,67.1,50.4,38.2,53.5,43.9,34.1,90,79,57,30.38,30.22,8,0,8,0.00
2012-12-3,75.1,60.5,50.8,59.6,53.1,46.7,91,78,52,30.26,30.16,8,0,8,0.00
2012-12-4,70.6,56.6,47.0,57.6,50.4,43.9,92,80,60,30.28,30.14,9,0,9,0.00
2012-12-5,62.4,56.4,41.1,57.3,52.1,38.1,89,85,81,30.18,30.08,11,0,11,0.05
2012-12-6,49.1,43.3,35.6,42.7,34.8,30.0,91,72,57,30.34,30.18,11,0,11,0.00
2012-12-7,54.7,48.4,43.6,49.0,42.6,35.1,89,80,71,30.21,29.98,6,0,6,0.04
2012-12-8,61.8,53.9,48.3,56.4,49.8,44.9,90,86,78,30.03,29.92,6,0,6,0.00
2012-12-9,69.6,59.8,48.5,61.7,56.0,45.7,93,87,75,30.10,29.95,7,0,7,0.08
2012-12-10,69.6,66.2,63.5,65.4,61.2,56.7,92,84,72,29.94,29.63,13,0,13,0.01
2012-12-11,64.5,56.5,49.5,58.3,45.8,38.7,85,68,53,30.12,29.66,10,1,10,0.00
2012-12-12,49.5,44.3,38.9,39.5,33.5,30.3,84,66,57,30.32,30.11,13,2,13,0.15
2012-12-13,50.6,40.4,31.2,38.5,33.4,25.9,86,76,61,30.38,30.26,7,1,14,0.07
2012-12-14,54.4,36.3,25.8,38.2,28.5,21.9,89,75,47,30.36,30.22,8,0,8,0.01
2012-12-15,54.8,43.0,31.0,40.9,33.7,26.4,88,71,46,30.24,30.06,10,0,10,0.00
2012-12-16,59.0,51.9,47.4,54.2,46.7,37.4,88,82,63,30.06,29.89,7,0,7,0.05
2012-12-20,63.7,59.3,53.2,60.5,55.7,48.2,90,88,83,29.71,29.40,13,2,13,0.38
2012-12-21,62.7,43.2,36.3,59.7,30.2,21.5,90,61,46,29.75,29.40,23,3,23,0.01
2012-12-22,48.5,38.6,29.1,24.7,21.6,19.6,71,51,33,30.05,29.75,20,3,20,0.00
2012-12-23,56.2,37.5,25.3,32.0,23.6,18.6,80,60,27,30.12,29.97,10,0,10,0.00
2012-12-24,51.6,49.3,42.1,45.1,39.8,31.5,83,70,60,29.99,29.83,13,0,13,0.00
2012-12-25,58.7,50.5,45.4,47.8,43.4,37.3,87,77,57,30.08,29.87,8,1,10,0.01
2012-12-26,48.9,44.4,39.5,46.6,41.4,37.3,92,89,73,30.05,29.39,20,2,20,1.15
2012-12-27,47.4,39.6,32.7,37.4,32.4,24.7,92,76,58,30.04,29.56,17,2,17,0.00
2012-12-28,43.8,33.6,25.7,32.3,26.6,21.0,85,76,58,30.15,29.97,7,0,7,0.00
2012-12-29,38.6,38.6,38.5,32.3,32.0,31.7,78,77,76,29.97,29.91,1,0,1,0.00
2012-12-30,34.7,29.6,27.3,21.9,20.5,19.8,74,69,57,30.37,30.29,1,0,1,0.00
2012-12-31,51.3,37.5,23.9,31.6,24.9,18.1,80,62,37,30.37,30.06,14,0,14,0.00
2013-1-1,49.5,45.9,41.9,46.7,39.2,29.4,90,78,54,30.07,29.89,11,0,11,0.21